This demonstration page uses our WeatherBlox Daily Observations layout. Learn more.

Hourly Observations for December 9, 2017

Temp ( °F °C ) Dew Point ( °F °C ) Humidity (%) Winds ( mph kmh ) Pressure ( in mb ) Visibility ( mi km ) Precip ( " mm )
12:15 am 00:15 Clear 33 0.6 23 -5 66 66 NW 12 19 30.18 1022 10 16.09344 0 0
12:35 am 00:35 Clear 33 0.5 23 -4.9 67 67 NW 13 20 30.18 1022 10 16.09344 0 0
12:55 am 00:55 Clear 32 0.1 23 -5 69 69 NW 8 13 30.21 1023 10 16.09344 0 0
1:15 am 01:15 Clear 31 -0.5 22 -5.3 70 70 NW 8 13 30.21 1023 10 16.09344 0 0
1:35 am 01:35 Clear 30 -0.9 23 -5.2 73 73 NW 9 15 30.21 1023 10 16.09344 0 0
1:55 am 01:55 Clear 32 0 23 -4.8 70 70 NW 10 17 30.21 1023 10 16.09344 0 0
2:15 am 02:15 Clear 32 0 23 -4.8 70 70 WNW 12 19 30.21 1023 10 16.09344 0 0
2:35 am 02:35 Clear 31 -0.3 23 -5 71 71 WNW 12 19 30.24 1024 10 16.09344 0 0
2:55 am 02:55 Clear 31 -0.5 23 -5.1 71 71 WNW 9 15 30.24 1024 10 16.09344 0 0
3:15 am 03:15 Clear 30 -1.2 22 -5.5 73 73 WNW 6 9 30.24 1024 10 16.09344 0 0
3:35 am 03:35 Clear 30 -1 22 -5.3 73 73 WNW 10 17 30.24 1024 10 16.09344 0 0
3:55 am 03:55 Clear 30 -1.1 22 -5.5 72 72 WNW 7 11 30.24 1024 10 16.09344 0 0
4:15 am 04:15 Clear 28 -2 22 -5.6 77 77 NW 10 17 30.24 1024 10 16.09344 0 0
4:35 am 04:35 Clear 32 0 23 -4.9 70 70 NW 12 19 30.24 1024 10 16.09344 0 0
4:55 am 04:55 Clear 33 0.3 24 -4.6 70 70 NW 12 19 30.24 1024 10 16.09344 0 0
5:15 am 05:15 Clear 32 0.1 24 -4.6 71 71 NW 10 17 30.24 1024 10 16.09344 0 0
5:35 am 05:35 Clear 33 0.3 24 -4.6 70 70 NW 10 17 30.24 1024 10 16.09344 0 0
5:55 am 05:55 Clear 33 0.4 24 -4.5 70 70 NW 12 19 30.24 1024 10 16.09344 0 0
6:15 am 06:15 Clear 32 0.2 24 -4.6 70 70 NW 10 17 30.24 1024 10 16.09344 0 0
6:35 am 06:35 Clear 32 0 24 -4.7 71 71 NW 13 20 30.24 1024 10 16.09344 0 0
6:55 am 06:55 Clear 32 -0.1 23 -4.8 71 71 NW 13 20 30.24 1024 10 16.09344 0 0
7:15 am 07:15 Clear 31 -0.5 23 -5.1 71 71 NW 9 15 30.24 1024 10 16.09344 0 0
7:35 am 07:35 Clear 31 -0.6 22 -5.3 71 71 WNW 12 19 30.24 1024 10 16.09344 0 0
7:55 am 07:55 Sunny 30 -1.2 22 -5.4 73 73 NW 9 15 30.24 1024 10 16.09344 0 0
8:15 am 08:15 Sunny 32 0 23 -5 69 69 NW 12 19 30.27 1025 10 16.09344 0 0
8:35 am 08:35 Sunny 32 0 23 -5 69 69 NW 12 19 30.27 1025 10 16.09344 0 0
8:55 am 08:55 Sunny 33 0.8 23 -5 66 66 NW 12 19 30.27 1025 10 16.09344 0 0
9:15 am 09:15 Sunny 35 1.5 23 -5 62 62 NW 14 22 30.24 1024 10 16.09344 0 0
9:35 am 09:35 Sunny 36 2.2 23 -4.8 60 60 NW 13 20 30.27 1025 10 16.09344 0 0
9:55 am 09:55 Sunny 37 3 24 -4.7 57 57 NNW 16 26 30.27 1025 10 16.09344 0 0
10:15 am 10:15 Sunny 38 3.5 24 -4.5 56 56 NNW 15 24 30.27 1025 10 16.09344 0 0
10:35 am 10:35 Sunny 38 3.6 24 -4.5 56 56 NNW 14 22 30.3 1026 10 16.09344 0 0
10:55 am 10:55 Sunny 40 4.6 24 -4.3 53 53 NNW 10 17 30.3 1026 10 16.09344 0 0
11:15 am 11:15 Sunny 41 5.1 24 -4.2 51 51 NNW 13 20 30.27 1025 10 16.09344 0 0
11:35 am 11:35 Sunny 42 5.8 24 -4.3 49 49 NNW 10 17 30.27 1025 10 16.09344 0 0
11:55 am 11:55 Sunny 43 6 24 -4.3 48 48 NW 10 17 30.27 1025 10 16.09344 0 0
12:15 pm 12:15 Sunny 45 7 25 -4.1 45 45 NW 12 19 30.24 1024 10 16.09344 0 0
12:35 pm 12:35 Sunny 45 7.3 24 -4.6 43 43 NW 10 17 30.24 1024 10 16.09344 0 0
12:55 pm 12:55 Sunny 46 8 24 -4.6 41 41 NW 9 15 30.21 1023 10 16.09344 0 0
1:15 pm 13:15 Sunny 47 8.6 24 -4.7 39 39 NW 12 19 30.18 1022 10 16.09344 0 0
1:35 pm 13:35 Sunny 48 9 23 -5 37 37 NW 14 22 30.18 1022 10 16.09344 0 0
1:55 pm 13:55 Sunny 49 9.3 23 -4.9 37 37 NW 15 24 30.18 1022 10 16.09344 0 0
2:15 pm 14:15 Sunny 50 9.8 23 -5.1 35 35 NW 14 22 30.18 1022 10 16.09344 0 0
2:35 pm 14:35 Sunny 50 10.1 22 -5.5 33 33 NW 12 19 30.18 1022 10 16.09344 0 0
2:55 pm 14:55 Sunny 50 10.1 23 -5.2 34 34 WNW 13 20 30.18 1022 10 16.09344 0 0
3:15 pm 15:15 Sunny 51 10.5 23 -5.2 33 33 WNW 13 20 30.18 1022 10 16.09344 0 0
3:35 pm 15:35 Sunny 51 10.7 23 -5.2 33 33 WNW 12 19 30.15 1021 10 16.09344 0 0
3:55 pm 15:55 Sunny 51 10.8 22 -5.8 31 31 NW 12 19 30.15 1021 10 16.09344 0 0
4:15 pm 16:15 Sunny 51 10.6 22 -5.8 31 31 WNW 8 13 30.18 1022 10 16.09344 0 0
4:35 pm 16:35 Sunny 50 10 21 -6 32 32 WNW 7 11 30.18 1022 10 16.09344 0 0
4:55 pm 16:55 Sunny 48 8.8 20 -6.5 34 34 W 5 7 30.18 1022 10 16.09344 0 0
5:15 pm 17:15 Clear 43 6 19 -7.3 38 38 W 5 7 30.21 1023 10 16.09344 0 0
5:35 pm 17:35 Clear 44 6.5 19 -7.1 37 37 W 5 7 30.21 1023 10 16.09344 0 0
5:55 pm 17:55 Clear 42 5.3 19 -7.2 40 40 W 6 9 30.21 1023 10 16.09344 0 0
6:15 pm 18:15 Clear 39 3.9 18 -7.7 43 43 W 5 7 30.24 1024 10 16.09344 0 0
6:35 pm 18:35 Hazy 37 3 18 -8 45 45 WSW 3 6 30.21 1023 4 6.437376 0 0
6:55 pm 18:55 Clear 36 2 18 -8 48 48 WSW 5 7 30.21 1023 10 16.09344 0 0
7:15 pm 19:15 Clear 36 2.2 18 -7.9 48 48 SW 5 7 30.21 1023 10 16.09344 0 0
7:35 pm 19:35 Clear 36 2.1 18 -7.6 49 49 WSW 5 7 30.21 1023 10 16.09344 0 0
7:55 pm 19:55 Clear 38 3.4 19 -7.4 45 45 WSW 7 11 30.21 1023 10 16.09344 0 0
8:15 pm 20:15 Clear 42 5.6 19 -7 40 40 W 12 19 30.18 1022 10 16.09344 0 0
8:35 pm 20:35 Clear 42 5.8 19 -7.5 38 38 W 10 17 30.18 1022 10 16.09344 0 0
8:55 pm 20:55 Clear 41 5.1 18 -7.9 39 39 W 12 19 30.18 1022 10 16.09344 0 0
9:15 pm 21:15 Clear 39 3.7 17 -8.3 42 42 W 15 24 30.21 1023 10 16.09344 0 0
9:35 pm 21:35 Clear 40 4.3 17 -8.3 40 40 W 15 24 30.18 1022 10 16.09344 0 0
9:55 pm 21:55 Clear 40 4.5 17 -8.5 39 39 W 12 19 30.18 1022 10 16.09344 0 0
10:15 pm 22:15 Clear 39 3.8 16 -8.7 40 40 W 12 19 30.21 1023 10 16.09344 0 0
10:35 pm 22:35 Clear 39 3.8 16 -8.8 40 40 W 13 20 30.21 1023 10 16.09344 0 0
10:55 pm 22:55 Clear 38 3.3 16 -8.9 41 41 WNW 8 13 30.21 1023 10 16.09344 0 0
11:15 pm 23:15 Clear 38 3.5 16 -8.8 41 41 WNW 13 20 30.21 1023 10 16.09344 0 0
11:35 pm 23:35 Clear 39 3.8 17 -8.5 41 41 WNW 13 20 30.21 1023 10 16.09344 0 0
11:55 pm 23:55 Clear 40 4.4 17 -8.3 40 40 WNW 10 17 30.18 1022 10 16.09344 0 0

Powered by AerisWeather